Waarnemingen

Advertentie
Mijn weer
Gioia Del Colle, Italië (16312): temperatuur & dauwpunt: 05.12.2017 06:00:00 - 11.12.2017 06:00:00 (CET)Gioia Del Colle, Italië (16312): windsnelheid: 05.12.2017 06:00:00 - 11.12.2017 06:00:00 (CET)Gioia Del Colle, Italië (16312): windrichting: 05.12.2017 06:00:00 - 11.12.2017 06:00:00 (CET)Gioia Del Colle, Italië (16312): luchtdruk: 05.12.2017 06:00:00 - 11.12.2017 06:00:00 (CET)Gioia Del Colle, Italië (16312): zicht: 05.12.2017 06:00:00 - 11.12.2017 06:00:00 (CET)
Datum & Tijd tt [°C] td [°C] ff [km/u] ff [kn] dd ppp [hPa] vv [km]
11.12.2017 06:00:00 6,0 5,0 9 5 ZO - 10
11.12.2017 05:00:00 6,0 4,0 21 11 ZZO - 10
11.12.2017 04:00:00 5,4 3,9 21 11 Z 1015,9 10
11.12.2017 03:00:00 5,0 4,0 21 11 Z - 10
11.12.2017 02:00:00 5,0 4,0 18 10 Z - 10
11.12.2017 01:00:00 5,2 3,5 18 10 ZZO 1016,7 10
11.12.2017 00:00:00 5,0 1,0 22 12 Z - 10
10.12.2017 23:00:00 5,0 1,0 21 11 Z - 10
10.12.2017 22:00:00 3,8 0,8 15 8 Z 1017,8 10
10.12.2017 21:00:00 3,0 1,0 21 11 Z - 10
10.12.2017 20:00:00 3,0 2,0 11 6 Z - 10
10.12.2017 19:00:00 3,8 2,0 16 9 Z 1017,7 10
10.12.2017 18:00:00 4,0 1,0 18 10 Z - 10
10.12.2017 17:00:00 4,0 0,0 16 9 Z - 10
10.12.2017 16:00:00 6,2 -2,9 18 10 Z 1017,8 10
10.12.2017 15:00:00 8,0 -6,0 15 8 ZZW - 10
10.12.2017 14:00:00 7,0 -9,0 16 9 ZZW - 10
10.12.2017 13:00:00 7,0 -7,8 11 6 ZZW 1019,3 10
10.12.2017 12:00:00 7,0 -7,0 13 7 ZZW - 10
10.12.2017 11:00:00 7,0 -4,0 9 5 Z - 10
10.12.2017 10:00:00 5,0 -1,9 5 3 WZW 1019,5 10
10.12.2017 09:00:00 4,0 -1,0 5 3 - - 10
10.12.2017 08:00:00 1,0 -2,0 16 9 WNW - 10
10.12.2017 07:00:00 0,6 -0,6 13 7 W 1019,1 10
10.12.2017 06:00:00 1,0 0,0 11 6 W - 10
10.12.2017 05:00:00 1,0 0,0 9 5 WNW - 10
10.12.2017 04:00:00 1,2 0,2 16 9 WNW 1018,3 10
10.12.2017 03:00:00 1,0 0,0 21 11 WNW - 10
10.12.2017 02:00:00 2,0 1,0 21 11 WNW - 10
10.12.2017 01:00:00 2,0 0,4 22 12 WNW 1016,4 10
10.12.2017 00:00:00 2,0 0,0 31 17 W - 10
09.12.2017 23:00:00 3,0 -1,0 31 17 WNW - 10
09.12.2017 22:00:00 3,8 0,3 29 16 WNW 1013,7 10
09.12.2017 21:00:00 3,0 1,0 15 8 NW - 10
09.12.2017 20:00:00 3,0 2,0 21 11 WNW - 10
09.12.2017 19:00:00 4,0 3,3 24 13 WNW 1011,1 8
09.12.2017 18:00:00 6,0 3,0 28 15 NW - 10
09.12.2017 17:00:00 8,0 1,0 22 12 W - 10
09.12.2017 16:00:00 10,2 2,1 13 7 WZW 1006,4 10
09.12.2017 15:00:00 11,0 5,0 26 14 Z - 10
09.12.2017 14:00:00 11,0 7,0 24 13 ZZW - 10
09.12.2017 13:00:00 9,4 7,8 21 11 Z 1007,9 10
09.12.2017 12:00:00 10,0 7,0 28 15 Z - 10
09.12.2017 11:00:00 11,0 6,0 24 13 Z - 8
09.12.2017 10:00:00 10,0 4,4 22 12 Z 1009,5 10
09.12.2017 09:00:00 10,0 4,0 31 17 Z - 10
09.12.2017 08:00:00 9,0 6,0 29 16 Z - 10
09.12.2017 07:00:00 8,8 4,6 34 18 Z 1010,0 10
09.12.2017 06:00:00 9,0 5,0 29 16 Z - 10
09.12.2017 05:00:00 9,0 5,0 24 13 Z - 10
09.12.2017 04:00:00 8,0 4,4 28 15 Z 1013,5 10
09.12.2017 03:00:00 9,0 4,0 22 12 Z - 10
09.12.2017 02:00:00 9,0 4,0 29 16 Z - 10
09.12.2017 01:00:00 8,0 3,7 28 15 Z 1015,4 10
09.12.2017 00:00:00 9,0 2,0 34 18 Z - 10
08.12.2017 23:00:00 8,0 3,0 24 13 Z - 10
08.12.2017 22:00:00 7,6 4,2 18 10 Z 1019,0 10
08.12.2017 21:00:00 7,0 4,0 15 8 ZZO - 10
08.12.2017 20:00:00 7,0 5,0 13 7 Z - 10
08.12.2017 19:00:00 8,0 7,4 21 11 Z 1020,1 10
08.12.2017 18:00:00 9,0 8,0 22 12 Z - 10
08.12.2017 17:00:00 9,0 9,0 21 11 ZZO - 10
08.12.2017 16:00:00 9,8 8,4 21 11 Z 1020,8 10
08.12.2017 15:00:00 11,0 7,0 21 11 Z - 10
08.12.2017 14:00:00 11,0 6,0 26 14 Z - 10
08.12.2017 13:00:00 10,4 5,2 22 12 Z 1023,1 10
08.12.2017 12:00:00 10,0 4,0 24 13 Z - 10
08.12.2017 11:00:00 10,0 4,0 22 12 Z - 10
08.12.2017 10:00:00 8,0 4,0 18 10 ZZO 1026,0 10
08.12.2017 09:00:00 6,0 3,0 15 8 Z - 10
08.12.2017 08:00:00 3,0 2,0 4 2 Z - 10
08.12.2017 07:00:00 0,4 0,4 11 6 Z 1027,3 10
08.12.2017 06:00:00 0,0 0,0 4 2 ZZW - 10
08.12.2017 05:00:00 0,0 0,0 4 2 WZW - 8
08.12.2017 04:00:00 -0,2 -0,2 4 2 N 1029,6 6
08.12.2017 03:00:00 0,0 0,0 2 1 - - 6
08.12.2017 02:00:00 0,0 0,0 2 1 - - 6
08.12.2017 01:00:00 0,4 0,4 2 1 N 1029,8 6
08.12.2017 00:00:00 1,0 1,0 2 1 - - 5
07.12.2017 23:00:00 1,0 1,0 2 1 - - 5
07.12.2017 22:00:00 2,0 2,0 4 2 N 1030,5 6
07.12.2017 21:00:00 3,0 3,0 4 2 - - 6
07.12.2017 20:00:00 3,0 2,0 2 1 - - 10
07.12.2017 19:00:00 4,2 3,0 4 2 W 1030,6 10
07.12.2017 18:00:00 5,0 2,0 2 1 - - 10
07.12.2017 17:00:00 8,0 0,0 8 4 N - 10
07.12.2017 16:00:00 10,2 0,0 8 4 N 1029,6 10
07.12.2017 15:00:00 11,0 -1,0 9 5 N - 10
07.12.2017 14:00:00 11,0 0,0 9 5 N - 10
07.12.2017 13:00:00 11,0 -0,2 9 5 N 1030,8 10
07.12.2017 12:00:00 11,0 -1,0 5 3 N - 10
07.12.2017 11:00:00 10,0 2,0 8 4 N - 10
07.12.2017 10:00:00 8,4 2,2 5 3 N 1032,1 10
07.12.2017 09:00:00 4,0 1,0 4 2 NW - 10
07.12.2017 08:00:00 1,0 -1,0 4 2 NNW - 10
07.12.2017 07:00:00 -0,8 -1,1 5 3 N 1032,8 10
07.12.2017 06:00:00 -1,0 -1,0 2 1 NO - 10
07.12.2017 05:00:00 0,0 -1,0 4 2 NO - 10
07.12.2017 04:00:00 1,2 -1,4 4 2 NNO 1032,5 10
07.12.2017 03:00:00 1,0 0,0 5 3 NNO - 10
07.12.2017 02:00:00 1,0 0,0 4 2 NNW - 10
07.12.2017 01:00:00 1,8 0,3 4 2 ZW 1032,8 10
07.12.2017 00:00:00 2,0 1,0 8 4 NNW - 10
06.12.2017 23:00:00 2,0 1,0 8 4 WNW - 10
06.12.2017 22:00:00 2,6 2,0 4 2 WNW 1033,1 10
06.12.2017 21:00:00 3,0 2,0 4 2 NNW - 10
06.12.2017 20:00:00 4,0 2,0 4 2 WNW - 10
06.12.2017 19:00:00 5,0 1,8 4 2 NW 1032,8 10
06.12.2017 18:00:00 7,0 2,0 4 2 N - 10
06.12.2017 17:00:00 9,0 0,0 8 4 N - 10
06.12.2017 16:00:00 11,2 -2,6 9 5 N 1031,3 10
06.12.2017 15:00:00 12,0 -7,0 13 7 N - 10
06.12.2017 14:00:00 12,0 -6,0 11 6 NNW - 10
06.12.2017 13:00:00 12,0 -6,9 13 7 NW 1032,1 10
06.12.2017 12:00:00 12,0 -5,0 11 6 WNW - 10
06.12.2017 11:00:00 10,0 -3,0 13 7 W - 10
06.12.2017 10:00:00 9,4 -1,0 11 6 WNW 1033,5 10
06.12.2017 09:00:00 6,0 -1,0 2 1 NNW - 10
06.12.2017 08:00:00 5,0 1,0 8 4 NW - 10
06.12.2017 07:00:00 4,8 1,7 9 5 NW 1033,5 10
06.12.2017 06:00:00 - - - - - - -
06.12.2017 05:00:00 - - - - - - -
06.12.2017 04:00:00 5,2 3,5 13 7 WNW 1033,4 10
06.12.2017 03:00:00 - - - - - - -
06.12.2017 02:00:00 - - - - - - -
06.12.2017 01:00:00 6,4 2,3 18 10 NW 1032,7 10
06.12.2017 00:00:00 - - - - - - -
05.12.2017 23:00:00 - - - - - - -
05.12.2017 22:00:00 5,2 1,1 16 9 NW 1033,2 10
05.12.2017 21:00:00 - - - - - - -
05.12.2017 20:00:00 - - - - - - -
05.12.2017 19:00:00 7,2 -0,8 16 9 NNW 1031,5 10
05.12.2017 18:00:00 - - - - - - -
05.12.2017 17:00:00 - - - - - - -
05.12.2017 16:00:00 8,2 -0,5 24 13 NNW 1029,8 10
05.12.2017 15:00:00 - - - - - - -
05.12.2017 14:00:00 - - - - - - -
05.12.2017 13:00:00 10,2 1,6 28 15 NW 1029,3 10
05.12.2017 12:00:00 - - - - - - -
05.12.2017 11:00:00 - - - - - - -
05.12.2017 10:00:00 7,2 6,0 16 9 NNO 1030,1 8
05.12.2017 09:00:00 - - - - - - -
05.12.2017 08:00:00 6,0 4,0 22 12 N - 5
05.12.2017 07:00:00 5,8 3,0 21 11 NW 1027,9 10
05.12.2017 06:00:00 6,0 3,0 21 11 NW - 10

tt = temperatuur
td = dauwpunt
ff = windsnelheid
dd = windrichting
ppp = luchtdruk
vv = zicht

Weerstations in de omgeving